Time,TemperatureF,DewpointF,PressureIn,WindDirection,WindDirectionDegrees,WindSpeedMPH,WindSpeedGustMPH,Humidity,HourlyPrecipIn,Conditions,Clouds,dailyrainin,SoftwareType,DateUTC
2013-06-06 00:02:00,51.0,45.0,-100.00,SE,130,4.0,9.0,80,0.00,,,-99.99,,2013-06-06 05:02:00,
2013-06-06 00:12:00,51.0,45.0,-100.00,SE,130,4.0,9.0,80,0.00,,,-99.99,,2013-06-06 05:12:00,
2013-06-06 00:22:00,51.0,45.0,-100.00,SE,130,4.0,9.0,80,0.00,,,-99.99,,2013-06-06 05:22:00,
2013-06-06 00:32:00,51.0,45.0,-100.00,SE,130,4.0,9.0,80,0.00,,,-99.99,,2013-06-06 05:32:00,
2013-06-06 02:02:00,50.0,45.0,-100.00,East,100,3.0,7.0,82,0.07,,,-99.99,,2013-06-06 07:02:00,
2013-06-06 02:12:00,50.0,45.0,-100.00,East,100,3.0,7.0,82,0.07,,,-99.99,,2013-06-06 07:12:00,
2013-06-06 02:22:00,50.0,45.0,-100.00,East,100,3.0,7.0,82,0.07,,,-99.99,,2013-06-06 07:22:00,
2013-06-06 02:32:00,50.0,45.0,-100.00,East,100,3.0,7.0,82,0.07,,,-99.99,,2013-06-06 07:32:00,
2013-06-06 03:02:00,50.0,45.0,-100.00,ESE,105,4.0,7.0,82,0.00,,,-99.99,,2013-06-06 08:02:00,
2013-06-06 03:12:00,50.0,45.0,-100.00,ESE,105,4.0,7.0,82,0.00,,,-99.99,,2013-06-06 08:12:00,
2013-06-06 03:22:00,50.0,45.0,-100.00,ESE,105,4.0,7.0,82,0.00,,,-99.99,,2013-06-06 08:22:00,
2013-06-06 03:32:00,50.0,45.0,-100.00,ESE,105,4.0,7.0,82,0.00,,,-99.99,,2013-06-06 08:32:00,
2013-06-06 04:02:00,50.0,44.0,-100.00,ESE,115,6.0,9.0,82,0.00,,,-99.99,,2013-06-06 09:02:00,
2013-06-06 04:12:00,50.0,44.0,-100.00,ESE,115,6.0,9.0,82,0.00,,,-99.99,,2013-06-06 09:12:00,
2013-06-06 04:22:00,50.0,44.0,-100.00,ESE,115,6.0,9.0,82,0.00,,,-99.99,,2013-06-06 09:22:00,
2013-06-06 04:33:00,50.0,44.0,-100.00,ESE,115,6.0,9.0,82,0.00,,,-99.99,,2013-06-06 09:33:00,
2013-06-06 05:03:00,50.0,44.0,-100.00,East,100,4.0,9.0,82,0.00,,,-99.99,,2013-06-06 10:03:00,
2013-06-06 05:12:00,50.0,44.0,-100.00,East,100,4.0,9.0,82,0.00,,,-99.99,,2013-06-06 10:12:00,
2013-06-06 05:23:00,50.0,44.0,-100.00,East,100,4.0,9.0,82,0.00,,,-99.99,,2013-06-06 10:23:00,
2013-06-06 05:33:00,50.0,44.0,-100.00,East,100,4.0,9.0,82,0.00,,,-99.99,,2013-06-06 10:33:00,
2013-06-06 06:02:00,50.0,45.0,-100.00,ESE,115,3.0,7.0,82,0.00,,,-99.99,,2013-06-06 11:02:00,
2013-06-06 06:12:00,50.0,45.0,-100.00,ESE,115,3.0,7.0,82,0.00,,,-99.99,,2013-06-06 11:12:00,
2013-06-06 06:22:00,50.0,45.0,-100.00,ESE,115,3.0,7.0,82,0.00,,,-99.99,,2013-06-06 11:22:00,
2013-06-06 06:32:00,50.0,45.0,-100.00,ESE,115,3.0,7.0,82,0.00,,,-99.99,,2013-06-06 11:32:00,
2013-06-06 06:41:00,50.0,44.0,-100.00,ESE,110,5.0,11.0,82,0.00,,,-99.99,,2013-06-06 11:41:00,
2013-06-06 07:03:00,50.0,44.0,-100.00,ESE,110,5.0,11.0,82,0.00,,,-99.99,,2013-06-06 12:03:00,
2013-06-06 07:12:00,50.0,44.0,-100.00,ESE,110,5.0,11.0,82,0.00,,,-99.99,,2013-06-06 12:12:00,
2013-06-06 07:23:00,50.0,44.0,-100.00,ESE,110,5.0,11.0,82,0.00,,,-99.99,,2013-06-06 12:23:00,
2013-06-06 07:33:00,50.0,44.0,-100.00,ESE,110,5.0,11.0,82,0.00,,,-99.99,,2013-06-06 12:33:00,
2013-06-06 07:40:00,49.0,44.0,-100.00,East,100,7.0,16.0,82,0.00,,,-99.99,,2013-06-06 12:40:00,
2013-06-06 08:03:00,49.0,44.0,-100.00,East,100,7.0,16.0,82,0.00,,,-99.99,,2013-06-06 13:03:00,
2013-06-06 08:13:00,49.0,44.0,-100.00,East,100,7.0,16.0,82,0.00,,,-99.99,,2013-06-06 13:13:00,
2013-06-06 08:22:00,49.0,44.0,-100.00,East,100,7.0,16.0,82,0.00,,,-99.99,,2013-06-06 13:22:00,
2013-06-06 08:32:00,49.0,44.0,-100.00,East,100,7.0,16.0,82,0.00,,,-99.99,,2013-06-06 13:32:00,
2013-06-06 08:40:00,50.0,44.0,-100.00,ESE,115,5.0,10.0,79,0.00,,,-99.99,,2013-06-06 13:40:00,
2013-06-06 09:03:00,50.0,44.0,-100.00,ESE,115,5.0,10.0,79,0.00,,,-99.99,,2013-06-06 14:03:00,
2013-06-06 09:13:00,50.0,44.0,-100.00,ESE,115,5.0,10.0,79,0.00,,,-99.99,,2013-06-06 14:13:00,
2013-06-06 09:22:00,50.0,44.0,-100.00,ESE,115,5.0,10.0,79,0.00,,,-99.99,,2013-06-06 14:22:00,
2013-06-06 09:33:00,50.0,44.0,-100.00,ESE,115,5.0,10.0,79,0.00,,,-99.99,,2013-06-06 14:33:00,
2013-06-06 09:40:00,51.0,44.0,-100.00,ESE,110,5.0,10.0,75,0.00,,,-99.99,,2013-06-06 14:40:00,
2013-06-06 10:03:00,51.0,44.0,-100.00,ESE,110,5.0,10.0,75,0.00,,,-99.99,,2013-06-06 15:03:00,
2013-06-06 10:13:00,51.0,44.0,-100.00,ESE,110,5.0,10.0,75,0.00,,,-99.99,,2013-06-06 15:13:00,
2013-06-06 10:23:00,51.0,44.0,-100.00,ESE,110,5.0,10.0,75,0.00,,,-99.99,,2013-06-06 15:23:00,
2013-06-06 10:33:00,51.0,44.0,-100.00,ESE,110,5.0,10.0,75,0.00,,,-99.99,,2013-06-06 15:33:00,
2013-06-06 11:03:00,52.0,43.0,-100.00,East,95,6.0,9.0,73,0.00,,,-99.99,,2013-06-06 16:03:00,
2013-06-06 11:12:00,52.0,43.0,-100.00,East,95,6.0,9.0,73,0.00,,,-99.99,,2013-06-06 16:12:00,
2013-06-06 11:23:00,52.0,43.0,-100.00,East,95,6.0,9.0,73,0.00,,,-99.99,,2013-06-06 16:23:00,
2013-06-06 11:33:00,52.0,43.0,-100.00,East,95,6.0,9.0,73,0.00,,,-99.99,,2013-06-06 16:33:00,
2013-06-06 12:03:00,52.0,44.0,-100.00,ESE,120,4.0,9.0,73,0.00,,,-99.99,,2013-06-06 17:03:00,
2013-06-06 12:13:00,52.0,44.0,-100.00,ESE,120,4.0,9.0,73,0.00,,,-99.99,,2013-06-06 17:13:00,
2013-06-06 12:23:00,52.0,44.0,-100.00,ESE,120,4.0,9.0,73,0.00,,,-99.99,,2013-06-06 17:23:00,
2013-06-06 12:33:00,52.0,44.0,-100.00,ESE,120,4.0,9.0,73,0.00,,,-99.99,,2013-06-06 17:33:00,
2013-06-06 12:42:00,52.0,44.0,-100.00,ESE,120,4.0,9.0,73,0.00,,,-99.99,,2013-06-06 17:42:00,
2013-06-06 13:03:00,53.0,43.0,-100.00,East,100,6.0,10.0,68,0.00,,,-99.99,,2013-06-06 18:03:00,
2013-06-06 13:13:00,53.0,43.0,-100.00,East,100,6.0,10.0,68,0.00,,,-99.99,,2013-06-06 18:13:00,
2013-06-06 13:23:00,53.0,43.0,-100.00,East,100,6.0,10.0,68,0.00,,,-99.99,,2013-06-06 18:23:00,
2013-06-06 13:33:00,53.0,43.0,-100.00,East,100,6.0,10.0,68,0.00,,,-99.99,,2013-06-06 18:33:00,
2013-06-06 13:43:00,53.0,43.0,-100.00,East,100,6.0,10.0,68,0.00,,,-99.99,,2013-06-06 18:43:00,
2013-06-06 14:03:00,54.0,43.0,-100.00,ESE,110,6.0,10.0,66,0.00,,,-99.99,,2013-06-06 19:03:00,
2013-06-06 14:13:00,54.0,43.0,-100.00,ESE,110,6.0,10.0,66,0.00,,,-99.99,,2013-06-06 19:13:00,
2013-06-06 14:23:00,54.0,43.0,-100.00,ESE,110,6.0,10.0,66,0.00,,,-99.99,,2013-06-06 19:23:00,
2013-06-06 14:33:00,54.0,43.0,-100.00,ESE,110,6.0,10.0,66,0.00,,,-99.99,,2013-06-06 19:33:00,
2013-06-06 14:42:00,54.0,43.0,-100.00,ESE,110,6.0,10.0,66,0.00,,,-99.99,,2013-06-06 19:42:00,
2013-06-06 15:03:00,54.0,43.0,-100.00,East,95,5.0,9.0,67,0.00,,,-99.99,,2013-06-06 20:03:00,
2013-06-06 15:13:00,54.0,43.0,-100.00,East,95,5.0,9.0,67,0.00,,,-99.99,,2013-06-06 20:13:00,
2013-06-06 15:23:00,54.0,43.0,-100.00,East,95,5.0,9.0,67,0.00,,,-99.99,,2013-06-06 20:23:00,
2013-06-06 15:33:00,54.0,43.0,-100.00,East,95,5.0,9.0,67,0.00,,,-99.99,,2013-06-06 20:33:00,
2013-06-06 17:03:00,54.0,43.0,-100.00,ENE,60,1.0,7.0,65,0.00,,,-99.99,,2013-06-06 22:03:00,
2013-06-06 17:13:00,54.0,43.0,-100.00,ENE,60,1.0,7.0,65,0.00,,,-99.99,,2013-06-06 22:13:00,
2013-06-06 17:23:00,54.0,43.0,-100.00,ENE,60,1.0,7.0,65,0.00,,,-99.99,,2013-06-06 22:23:00,
2013-06-06 17:33:00,54.0,43.0,-100.00,ENE,60,1.0,7.0,65,0.00,,,-99.99,,2013-06-06 22:33:00,
2013-06-06 18:13:00,54.0,42.0,-100.00,ESE,105,3.0,7.0,64,0.00,,,-99.99,,2013-06-06 23:13:00,
2013-06-06 18:22:00,54.0,42.0,-100.00,ESE,105,3.0,7.0,64,0.00,,,-99.99,,2013-06-06 23:22:00,
2013-06-06 18:33:00,54.0,42.0,-100.00,ESE,105,3.0,7.0,64,0.00,,,-99.99,,2013-06-06 23:33:00,
2013-06-06 19:02:00,54.0,40.0,-100.00,East,90,4.0,6.0,60,0.00,,,-99.99,,2013-06-07 00:02:00,
2013-06-06 20:02:00,53.0,41.0,-100.00,North,-999,-999.0,-999.0,64,-99.99,,,-99.99,,2013-06-07 01:02:00,
2013-06-06 20:12:00,53.0,41.0,-100.00,North,0,1.0,2.0,64,0.00,,,-99.99,,2013-06-07 01:12:00,
2013-06-06 20:22:00,53.0,41.0,-100.00,North,0,1.0,2.0,64,0.00,,,-99.99,,2013-06-07 01:22:00,
2013-06-06 20:32:00,53.0,41.0,-100.00,North,0,1.0,2.0,64,0.00,,,-99.99,,2013-06-07 01:32:00,
2013-06-06 20:42:00,53.0,41.0,-100.00,North,0,1.0,2.0,64,0.00,,,-99.99,,2013-06-07 01:42:00,
2013-06-06 21:02:00,53.0,44.0,-100.00,NNE,30,0.0,1.0,72,0.00,,,-99.99,,2013-06-07 02:02:00,
2013-06-06 21:12:00,53.0,44.0,-100.00,NNE,30,0.0,1.0,72,0.00,,,-99.99,,2013-06-07 02:12:00,
2013-06-06 21:22:00,53.0,44.0,-100.00,NNE,30,0.0,1.0,72,0.00,,,-99.99,,2013-06-07 02:22:00,
2013-06-06 21:32:00,53.0,44.0,-100.00,NNE,30,0.0,1.0,72,0.00,,,-99.99,,2013-06-07 02:32:00,
2013-06-06 21:42:00,53.0,44.0,-100.00,NNE,30,0.0,1.0,72,0.00,,,-99.99,,2013-06-07 02:42:00,
2013-06-06 22:12:00,51.0,44.0,-100.00,NNE,20,0.0,1.0,78,0.00,,,-99.99,,2013-06-07 03:12:00,
2013-06-06 22:22:00,51.0,44.0,-100.00,NNE,20,0.0,1.0,78,0.00,,,-99.99,,2013-06-07 03:22:00,
2013-06-06 22:33:00,51.0,44.0,-100.00,NNE,20,0.0,1.0,78,0.00,,,-99.99,,2013-06-07 03:33:00,
2013-06-06 22:43:00,51.0,44.0,-100.00,NNE,20,0.0,1.0,78,0.00,,,-99.99,,2013-06-07 03:43:00,
2013-06-06 23:12:00,50.0,44.0,-100.00,NE,45,0.0,1.0,80,0.00,,,-99.99,,2013-06-07 04:12:00,
2013-06-06 23:23:00,50.0,44.0,-100.00,NE,45,0.0,1.0,80,0.00,,,-99.99,,2013-06-07 04:23:00,
2013-06-06 23:33:00,50.0,44.0,-100.00,NE,45,0.0,1.0,80,0.00,,,-99.99,,2013-06-07 04:33:00,
2013-06-06 23:42:00,50.0,44.0,-100.00,NE,45,0.0,1.0,80,0.00,,,-99.99,,2013-06-07 04:42:00,